STARLINK-33642, 63978

Orbit data source: Space-Track

STARLINK-33642, 63978 is a payload satellite owned by SpaceX/Seattle (US) in LEO that was launched on Tue, 13 May 2025 UTC via an FALCON 9 launch vehicle from the Air Force Eastern Test Range (AFETR). Payload-class satellites include a variety of spacecraft equipped with specific instruments for various scientific and technological missions. These include communications satellites like Starlink; space stations such as the ISS; scientific satellites like the Hubble; Earth observation satellites from companies like Planet Labs, Umbra, and HawkEye 360; GPS; miniature CubeSats for education and research; and military/defense satellites.

Loading next visibility...
Identifier
63978, 2025-099AC
Orbit
LEO
Country
Flag of USUS
Related business
Manufacturer
SpaceX/Seattle
Mission
Operational Commercial Communications
Bus & Motor
STARLINK V2MO, Unknown motor
Mass
575 kg wet, ~530 kg dry
Launch date (UTC)
2025-05-13 (7 months ago)
Launch vehicle
FALCON 9
Launch site
Air Force Eastern Test Range (AFETR)
Object type
Payload
Rocket body
Debris
Shape & HBR
Box + 2 Pan, 17.7 m
Radar Cross Section
36.964 m², Large (>1 m²)

Expand to show TLE details & history
Last TLE update: 11 hours ago

TLE from 11 hours ago
0 STARLINK-33642
1 63978U 25099AC  25346.89980301  .00049159  00000-0  17832-2 0  9997
2 63978  43.0003 302.8314 0001376 280.1371  79.9326 15.27596810 34013
Epoch: 2025-12-12T21:35Z
TLE epoch observation values (Epoch: 2025-12-12T21:35:42.980Z)
Latitude
0.00004°
Longitude
-102.93244°
Altitude
482.609 km
Speed
7.626 km/s
True Right ascension
20h 11m 19s
True Declination
0° 00' 00"
Sunlit
Object was in daylight at epoch
Visualization orbit readout
Latitude
Unknown
Longitude
Unknown
Altitude
Unknown
Speed
Unknown
Apparent Right ascension
Unknown
Apparent Declination
Unknown
Sunlit
N/A
Visualization observer readout
Local Sidereal Time
07:33:27
Azimuth
Unknown
Elevation
Unknown
Doppler factor
Unknown
Orbital elements
Apogee altitude
485.888 km
Perigee altitude
484 km
Semi-major axis
6,863.081 km
Eccentricity
0.00014
Inclination
43.0003°
RAAN
302.8314°
Arg. of periapsis
280.1371°
True anomaly
79.94813°
Mean anomaly
79.9326°
Eccentric anomaly
79.94036°
Mean motion
3.81737 °/min
Orbital period
94.31 mins
BSTAR
0.0017832
Loading maneuver chart data...
Computing Atmospheric mass density...
Loading historical data...
Loading historical data...
Loading historical data...
Loading historical data...
Loading historical data...
Loading historical data...
Loading historical data...

Documentation

Showing up to 5 results
|